Regional Weather Roundup
Issued by NWS

Home | Current Version | Previous Version | Graphics & Text | Print | Product List | Glossary On
Versions: 1 2 3 4 5 6 7 8 9 10 11 12 13 14 15 16 17 18 19 20 21 22 23 24 25 26 27 28 29 30 31 32 33 34 35 36 37 38 39 40 41 42 43 44 45 46 47 48 49 50
000
ASUS45 KABQ 310910
RWRNM
NEW MEXICO REGIONAL WEATHER ROUNDUP
NATIONAL WEATHER SERVICE ALBUQUERQUE NM
300 AM MDT FRI JUL 31 2015

NOTE: "FAIR" MEANS FEW OR NO CLOUDS BELOW 12,000 FEET AGL WITH NO
       SIGNIFICANT WEATHER OR OBSTRUCTIONS TO VISION.

      THIS PRODUCT IS RELEASED AS TWO VERSIONS.  ONE VERSION NEAR
      THE TOP OF THE HOUR CONTAINING PRELIMINARY DATA FROM ALBUQUERQUE
      AND OTHER STATIONS.  A FINAL VERSION WITH ADDITIONAL DATA IS
      ISSUED ABOUT 10 MINUTES AFTER THE HOUR.

NMZ501-503-504-510>518-311000-
NORTHWEST PLATEAU/NORTHCENTRAL MOUNTAINS

CITY           SKY/WX    TMP DP  RH WIND       PRES   REMARKS
FARMINGTON     LGT RAIN  63  61  93 N6        30.35F
LOS ALAMOS     CLOUDY    62  56  81 SW8       30.47F
SANTA FE       CLOUDY    63  58  83 S7        30.41F
TAOS           MOCLDY    57  46  67 NE3       30.48F
ANGEL FIRE     FAIR      49  48  97 CALM      30.56S

$$
NMZ402-403-502-505>509-311000-
WESTCENTRAL MOUNTAINS/SOUTHWEST MOUNTAINS

CITY           SKY/WX    TMP DP  RH WIND       PRES   REMARKS
GALLUP         CLOUDY    61  56  83 NE9       30.40F
GRANTS         MOCLDY    60  60  99 NW3       30.42F
SILVER CITY      N/A     68  63  83 N3        30.32R

$$
NMZ407-409-411-412-311000-
SOUTHERN DESERTS

CITY           SKY/WX    TMP DP  RH WIND       PRES   REMARKS
LORDSBURG      FAIR      72  63  73 S8        30.20S
DEMING         CLOUDY    74  61  63 SE15      30.26R
LAS CRUCES     RAIN      67  63  86 W9        30.29R
HOLLOMAN AFB   CLOUDY    76  59  54 N5        30.22R
ALAMOGORDO     MOCLDY    75  59  57 NE3       30.24R
T OR C         PTCLDY    69  60  73 W3        30.27S

$$
NMZ519>523-311000-
CENTRAL VALLEYS/CENTRAL HIGHLANDS

CITY           SKY/WX    TMP DP  RH WIND       PRES   REMARKS
ALBUQUERQUE    CLOUDY    69  61  75 N8        30.34F
DOUBLE EAGLE   CLOUDY    64  61  90 N8        30.38F
MORIARTY ARPT    N/A     61  58  88 CALM      30.43S
CLINES CORNERS NOT AVBL
BELEN          CLOUDY    67  60  79 N6        30.32F
SOCORRO        CLOUDY    71  60  68 NW9       30.29S

$$
NMZ524>526-539-540-311000-
SOUTHCENTRAL MOUNTAINS

CITY           SKY/WX    TMP DP  RH WIND       PRES   REMARKS
RUIDOSO          N/A    N/A N/A N/A MISG        N/A

$$
NMZ527>531-311000-
NORTHEAST HIGHLANDS/NORTHEAST PLAINS

CITY           SKY/WX    TMP DP  RH WIND       PRES   REMARKS
LAS VEGAS      CLOUDY    58  57  97 S7        30.44F
RATON          PTCLDY    57  55  93 N7        30.39F
CLAYTON        LGT RAIN  65  59  81 SW12      30.32R

$$
NMZ532>537-311000-
EASTCENTRAL PLAINS

CITY           SKY/WX    TMP DP  RH WIND       PRES   REMARKS
TUCUMCARI      TSTM      69  65  86 NW8       30.29S
CANNON AFB     CLOUDY    69  65  88 W12       30.31R
CLOVIS AIRPORT CLOUDY    70  66  88 W7        30.30S

$$
NMZ028-029-538-311000-
SOUTHEAST PLAINS

CITY           SKY/WX    TMP DP  RH WIND       PRES   REMARKS
ROSWELL        MOCLDY    72  64  76 N9        30.24F
ARTESIA        PTCLDY    72  68  88 N15       30.23F
CARLSBAD       PTCLDY    77  62  59 NW14      30.19R
HOBBS          PTCLDY    72  63  73 E6        30.22S


$$


USA.gov is the U.S. government's official web portal to all federal, state and local government web resources and services.